Location: *
(38.9800°N, 16.0500°E)
Time: 05:35:49
(UTC+00:00)

NOSS 3-2 (C) - Pass Details

Date: 07 April 2020
Orbit: 802 x 1410 km, 63.4° (Epoch: 29 May)

Event Time Altitude Azimuth Distance (km) Brightness Sun altitude
Exits shadow 02:09:17 71° 212° (SSW) 926 3.1 -26.2°
Maximum altitude 02:09:57 90° 141° (SE) 892 3.2 -26.1°
Drops below altitude 10° 02:16:16 10° 34° (NNE) 2,739 6.7 -25.1°
Sets 02:19:02 0° 34° (NE) 3,784 7.7 -24.6°
